Temp
-13 -12 -12 -12 -12 -12 -12 -12 -11 -11 -11 -11 -11 -11 -11 -11 -11 -10 -10 -10 -10 -10 -10 -10 -10 -10 -10 -10 -11 -11 -11 -11 -11 -11 -11 -11 -11 -11 -11 -11 -11 -12 -12 -12
-13 -12 -13 -13 -13 -12 -12 -12 -12 -11 -11 -11 -11 -11 -11 -11 -11 -11 -10 -10 -10 -10 -10 -10 -10 -10 -10 -10 -11 -11 -11 -11 -11 -12 -12 -11 -11 -11 -11 -11 -12 -12 -12 -12
-13 -13 -13 -13 -13 -13 -12 -12 -12 -12 -12 -11 -11 -11 -11 -11 -11 -11 -11 -11 -11 -11 -10 -10 -10 -10 -10 -11 -11 -11 -11 -11 -11 -12 -12 -12 -12 -12 -12 -12 -12 -12 -12 -12
-14 -14 -13 -13 -13 -13 -13 -13 -12 -12 -12 -12 -11 -11 -11 -11 -11 -11 -11 -11 -11 -11 -11 -10 -10 -10 -10 -11 -11 -11 -11 -11 -11 -11 -12 -12 -12 -12 -12 -12 -12 -12 -12 -12
-13 -13 -13 -13 -13 -14 -13 -13 -13 -13 -13 -12 -12 -11 -11 -11 -11 -11 -11 -11 -11 -11 -11 -11 -11 -11 -11 -11 -11 -11 -11 -11 -11 -11 -12 -12 -12 -12 -12 -12 -12 -12 -12 -12
-14 -14 -14 -14 -14 -14 -13 -13 -14 -13 -13 -12 -12 -12 -11 -11 -11 -11 -11 -11 -11 -11 -11 -11 -11 -11 -11 -11 -11 -11 -11 -12 -12 -11 -11 -12 -12 -12 -12 -12 -12 -12 -12 -12
-14 -14 -14 -15 -15 -14 -14 -14 -14 -14 -13 -12 -12 -12 -11 -11 -11 -11 -12 -12 -12 -12 -11 -11 -12 -11 -11 -11 -11 -11 -11 -12 -12 -12 -12 -12 -12 -12 -12 -12 -12 -12 -12 -12
-14 -14 -14 -14 -15 -15 -15 -15 -14 -14 -13 -13 -13 -12 -11 -12 -12 -12 -12 -12 -12 -12 -12 -12 -12 -12 -12 -12 -11 -11 -12 -12 -12 -12 -12 -12 -12 -12 -12 -12 -12 -12 -12 -12
-15 -15 -15 -15 -15 -15 -15 -14 -15 -15 -14 -13 -13 -12 -12 -12 -12 -12 -12 -13 -13 -12 -12 -12 -12 -12 -12 -12 -12 -12 -12 -12 -12 -12 -12 -12 -12 -12 -12 -12 -12 -12 -12 -13
-16 -15 -15 -15 -15 -15 -15 -15 -15 -15 -14 -14 -13 -13 -12 -12 -12 -13 -13 -13 -13 -13 -13 -13 -13 -13 -13 -13 -12 -12 -12 -12 -12 -12 -12 -12 -12 -12 -12 -12 -12 -12 -12 -13
-17 -16 -15 -16 -15 -15 -16 -15 -15 -15 -15 -14 -13 -13 -12 -12 -12 -13 -13 -13 -13 -13 -14 -13 -13 -13 -13 -13 -13 -13 -13 -13 -13 -12 -12 -12 -12 -12 -12 -12 -12 -13 -13 -13
-17 -16 -16 -15 -16 -16 -16 -15 -16 -16 -15 -15 -15 -13 -12 -12 -13 -13 -13 -13 -14 -14 -14 -14 -14 -14 -13 -13 -13 -13 -13 -13 -13 -13 -13 -13 -13 -13 -13 -13 -13 -13 -14 -14
-18 -18 -16 -16 -15 -15 -15 -15 -16 -16 -16 -16 -15 -11 -12 -13 -13 -13 -13 -13 -14 -14 -14 -14 -14 -14 -14 -14 -14 -14 -13 -13 -14 -14 -13 -13 -13 -13 -13 -14 -14 -14 -14 -14
-18 -18 -16 -15 -16 -16 -16 -16 -16 -17 -16 -14 -15 -13 -13 -13 -14 -14 -14 -14 -14 -14 -14 -14 -14 -14 -14 -14 -14 -14 -14 -14 -14 -14 -14 -13 -13 -14 -14 -14 -15 -15 -15 -15
-17 -16 -16 -16 -16 -17 -16 -17 -16 -16 -15 -16 -14 -15 -12 -14 -14 -14 -15 -14 -14 -14 -15 -14 -14 -14 -14 -14 -14 -14 -14 -14 -14 -14 -14 -14 -14 -15 -15 -15 -15 -15 -16 -16
-17 -17 -17 -16 -17 -18 -17 -16 -15 -16 -15 -16 -15 -15 -13 -15 -16 -16 -16 -15 -15 -15 -15 -16 -16 -15 -15 -15 -15 -15 -15 -14 -14 -14 -15 -15 -15 -15 -16 -16 -16 -16 -16 -16
-18 -17 -17 -17 -18 -18 -17 -15 -17 -17 -17 -17 -16 -14 -15 -15 -15 -16 -16 -15 -15 -15 -16 -16 -16 -17 -16 -16 -16 -16 -16 -16 -16 -16 -16 -16 -16 -16 -16 -17 -17 -16 -17 -17
-18 -18 -18 -18 -18 -18 -16 -16 -17 -17 -17 -17 -16 -16 -15 -16 -17 -17 -15 -15 -16 -16 -16 -16 -17 -17 -17 -17 -17 -17 -17 -17 -17 -17 -17 -17 -17 -17 -17 -17 -17 -18 -18 -18
-19 -19 -18 -18 -18 -18 -16 -17 -17 -17 -16 -18 -17 -16 -16 -17 -17 -15 -16 -16 -16 -17 -17 -17 -17 -17 -18 -18 -18 -18 -18 -18 -18 -18 -18 -18 -17 -18 -18 -18 -18 -18 -18 -19
-19 -19 -19 -19 -19 -18 -17 -17 -18 -18 -16 -17 -18 -18 -17 -17 -18 -16 -17 -17 -17 -17 -17 -17 -17 -18 -18 -18 -18 -18 -18 -18 -18 -18 -18 -18 -18 -18 -18 -18 -18 -19 -19 -19
-20 -20 -20 -20 -20 -18 -17 -18 -18 -18 -17 -18 -18 -18 -18 -18 -18 -17 -17 -17 -17 -17 -17 -17 -18 -18 -18 -18 -18 -18 -18 -18 -18 -18 -18 -18 -18 -18 -18 -19 -19 -19 -19 -19
-20 -20 -20 -21 -20 -18 -18 -19 -19 -19 -18 -18 -18 -18 -18 -17 -18 -18 -17 -17 -17 -17 -17 -18 -18 -18 -18 -18 -18 -18 -18 -19 -18 -18 -18 -18 -18 -19 -19 -20 -20 -20 -19 -19
-20 -20 -20 -20 -20 -20 -19 -19 -19 -19 -19 -18 -18 -18 -18 -18 -18 -18 -18 -18 -18 -18 -18 -18 -18 -18 -18 -18 -18 -18 -18 -18 -18 -18 -19 -19 -20 -20 -20 -20 -20 -20 -20 -20
-20 -21 -21 -21 -20 -20 -20 -21 -21 -20 -20 -19 -19 -19 -19 -18 -18 -18 -18 -18 -18 -18 -18 -18 -19 -19 -19 -19 -18 -19 -18 -18 -19 -19 -20 -20 -20 -20 -21 -21 -21 -20 -20 -20
-21 -21 -21 -21 -21 -21 -22 -21 -21 -22 -21 -21 -20 -20 -20 -19 -19 -19 -19 -19 -19 -19 -19 -19 -19 -19 -19 -19 -19 -19 -19 -19 -20 -20 -21 -20 -20 -21 -21 -21 -21 -21 -21 -21
-22 -22 -22 -23 -22 -23 -22 -22 -22 -22 -22 -22 -21 -21 -22 -21 -21 -20 -21 -20 -20 -20 -20 -20 -19 -19 -19 -20 -20 -20 -19 -21 -21 -21 -21 -21 -21 -21 -21 -22 -22 -21 -21 -22
Height
5758 5764 5770 5776 5782 5789 5794 5798 5801 5807 5813 5817 5822 5826 5830 5836 5839 5844 5849 5852 5852 5855 5855 5857 5859 5860 5861 5861 5862 5863 5863 5863 5864 5865 5866 5866 5866 5866 5865 5866 5865 5864 5863 5863
5752 5757 5767 5771 5777 5783 5788 5795 5799 5805 5808 5810 5812 5819 5824 5829 5835 5840 5843 5845 5847 5849 5851 5852 5854 5855 5856 5856 5856 5857 5858 5858 5858 5860 5860 5861 5860 5861 5860 5860 5859 5857 5857 5857
5750 5759 5763 5767 5773 5780 5783 5789 5792 5796 5800 5804 5807 5814 5818 5824 5828 5832 5837 5840 5842 5843 5844 5847 5849 5849 5850 5850 5850 5851 5851 5852 5853 5853 5853 5854 5854 5855 5853 5852 5851 5850 5850 5849
5742 5749 5754 5760 5766 5771 5774 5780 5785 5789 5793 5797 5801 5805 5812 5817 5821 5827 5830 5832 5836 5838 5838 5840 5843 5843 5843 5844 5844 5844 5845 5845 5845 5847 5847 5847 5848 5848 5847 5845 5844 5843 5842 5842
5737 5740 5747 5755 5761 5765 5770 5774 5778 5780 5785 5791 5795 5798 5808 5810 5816 5820 5822 5825 5828 5831 5832 5834 5834 5836 5836 5837 5837 5837 5837 5837 5837 5838 5840 5840 5840 5839 5839 5839 5838 5836 5834 5833
5728 5735 5740 5747 5751 5756 5762 5767 5771 5773 5777 5782 5787 5791 5799 5806 5810 5813 5816 5819 5822 5823 5825 5827 5827 5828 5829 5829 5829 5829 5829 5829 5829 5829 5831 5832 5832 5831 5831 5830 5829 5829 5827 5825
5721 5726 5734 5739 5745 5750 5754 5758 5760 5764 5768 5775 5778 5785 5796 5801 5804 5807 5809 5811 5814 5815 5816 5818 5819 5820 5821 5821 5821 5821 5821 5821 5821 5822 5823 5824 5824 5823 5822 5821 5821 5819 5818 5816
5715 5722 5728 5733 5738 5745 5750 5754 5758 5761 5764 5770 5771 5779 5789 5794 5795 5797 5799 5804 5806 5807 5809 5810 5811 5812 5812 5813 5813 5813 5813 5813 5813 5813 5814 5815 5814 5814 5813 5811 5811 5810 5808 5806
5706 5711 5717 5725 5728 5736 5740 5744 5749 5751 5756 5759 5764 5775 5780 5784 5788 5791 5792 5795 5797 5799 5800 5801 5802 5803 5804 5804 5804 5805 5804 5805 5805 5805 5805 5805 5804 5804 5803 5802 5801 5800 5797 5795
5698 5703 5709 5716 5721 5727 5734 5739 5741 5742 5746 5750 5757 5763 5771 5775 5781 5783 5786 5787 5788 5790 5790 5792 5793 5794 5794 5795 5795 5796 5796 5796 5796 5796 5795 5795 5795 5794 5793 5791 5790 5789 5786 5783
5689 5694 5701 5706 5713 5719 5724 5728 5732 5734 5738 5742 5747 5753 5761 5765 5769 5772 5775 5776 5779 5780 5781 5782 5783 5784 5785 5786 5786 5787 5787 5787 5787 5786 5786 5785 5784 5784 5783 5781 5779 5777 5775 5773
5682 5684 5691 5700 5707 5710 5714 5720 5720 5723 5731 5730 5735 5744 5752 5753 5758 5760 5765 5767 5768 5769 5771 5772 5773 5774 5774 5775 5776 5776 5777 5777 5776 5776 5775 5775 5774 5773 5772 5769 5767 5765 5764 5761
5672 5674 5681 5687 5694 5697 5701 5706 5709 5715 5717 5717 5724 5739 5741 5744 5748 5748 5750 5754 5756 5759 5761 5762 5763 5763 5764 5763 5763 5764 5764 5764 5764 5764 5764 5763 5762 5760 5758 5756 5754 5753 5751 5748
5658 5665 5672 5682 5684 5689 5692 5697 5702 5703 5707 5717 5714 5731 5730 5733 5737 5737 5737 5736 5741 5744 5745 5746 5748 5751 5752 5752 5752 5752 5752 5752 5752 5751 5750 5749 5747 5745 5743 5741 5740 5739 5737 5734
5650 5660 5668 5672 5672 5673 5676 5683 5689 5693 5704 5695 5714 5711 5726 5722 5721 5722 5720 5724 5725 5728 5730 5732 5734 5736 5737 5738 5740 5740 5740 5739 5738 5737 5736 5734 5732 5730 5729 5727 5725 5724 5722 5720
5644 5651 5657 5660 5662 5663 5666 5677 5683 5681 5687 5685 5694 5696 5720 5709 5706 5705 5707 5709 5711 5713 5716 5718 5719 5720 5720 5722 5723 5723 5724 5723 5723 5722 5720 5719 5718 5717 5715 5713 5711 5709 5707 5704
5637 5644 5648 5649 5652 5653 5661 5676 5667 5671 5675 5676 5677 5692 5697 5693 5688 5685 5688 5692 5697 5699 5699 5701 5703 5704 5706 5707 5706 5706 5706 5707 5707 5707 5706 5704 5703 5701 5699 5698 5696 5694 5691 5688
5628 5633 5637 5639 5642 5644 5664 5661 5661 5660 5665 5665 5666 5676 5682 5679 5674 5668 5680 5681 5681 5680 5681 5682 5686 5688 5688 5690 5691 5691 5692 5692 5692 5690 5689 5688 5686 5685 5684 5682 5679 5676 5673 5670
5618 5622 5625 5627 5632 5640 5651 5647 5648 5648 5662 5652 5653 5663 5664 5662 5657 5668 5668 5665 5668 5667 5667 5667 5670 5671 5671 5673 5674 5675 5675 5674 5673 5673 5672 5671 5669 5667 5665 5664 5661 5659 5657 5655
5607 5610 5614 5617 5619 5626 5637 5637 5637 5636 5650 5644 5646 5649 5650 5648 5646 5661 5652 5654 5653 5653 5654 5655 5655 5654 5656 5657 5657 5657 5657 5657 5657 5656 5654 5653 5651 5650 5648 5646 5646 5644 5641 5638
5595 5599 5604 5606 5607 5617 5625 5624 5622 5626 5640 5631 5632 5636 5637 5637 5635 5642 5640 5640 5641 5642 5642 5643 5644 5643 5642 5642 5642 5641 5640 5640 5639 5639 5638 5637 5635 5633 5632 5631 5629 5627 5624 5622
5584 5588 5592 5594 5596 5606 5612 5611 5611 5614 5617 5619 5619 5620 5621 5622 5623 5625 5627 5627 5628 5628 5627 5628 5628 5627 5628 5628 5627 5627 5626 5625 5624 5624 5623 5621 5620 5619 5616 5614 5612 5609 5608 5606
5572 5576 5580 5584 5590 5595 5596 5594 5594 5596 5600 5604 5604 5605 5608 5609 5609 5609 5612 5613 5615 5615 5614 5613 5614 5614 5613 5613 5612 5612 5610 5609 5609 5608 5607 5605 5604 5602 5600 5598 5594 5593 5592 5590
5557 5561 5565 5570 5578 5579 5580 5579 5578 5580 5584 5586 5588 5588 5590 5592 5593 5595 5596 5597 5599 5600 5601 5600 5599 5599 5599 5598 5598 5597 5596 5595 5594 5591 5591 5589 5587 5586 5584 5580 5577 5576 5574 5572
5545 5549 5553 5557 5561 5561 5561 5560 5562 5564 5567 5569 5571 5573 5574 5576 5577 5577 5579 5581 5581 5582 5583 5584 5583 5583 5583 5583 5583 5582 5581 5578 5577 5576 5576 5574 5571 5568 5565 5561 5558 5556 5554 5553
5535 5538 5539 5540 5544 5543 5545 5545 5546 5548 5551 5553 5555 5557 5558 5560 5561 5562 5562 5563 5564 5564 5565 5566 5566 5567 5567 5566 5566 5566 5564 5562 5561 5559 5557 5554 5551 5548 5546 5544 5540 5537 5533 5530
Wind_Speed
41 41 42 40 41 40 42 44 45 43 40 39 41 41 40 38 38 34 31 30 27 27 27 25 23 22 23 23 23 25 26 27 26 25 24 24 24 23 22 21 21 22 23 25
45 44 42 41 41 42 43 41 42 41 41 42 43 42 40 41 39 35 36 34 31 30 29 28 27 25 26 26 26 27 27 29 30 28 29 29 27 26 26 26 27 28 29 29
43 38 40 41 39 38 40 41 43 43 41 43 43 43 42 40 41 40 40 36 35 34 32 30 29 28 29 29 29 29 29 30 31 33 33 33 31 30 30 32 32 34 34 34
44 43 44 41 40 41 44 43 43 43 44 44 44 43 41 42 43 40 40 39 38 36 34 34 30 31 30 31 32 32 33 33 33 33 35 36 35 34 35 36 38 39 39 39
49 49 47 42 40 39 41 41 42 43 45 47 46 47 40 41 40 38 38 38 38 36 34 34 35 32 33 34 35 35 36 36 35 36 35 37 38 37 39 38 40 42 43 43
49 47 46 44 44 44 44 43 44 47 47 49 48 48 52 40 38 35 38 37 37 36 35 35 35 35 34 36 37 37 37 37 37 37 36 37 38 39 39 40 41 43 44 45
52 51 48 44 43 45 46 45 45 48 49 50 49 49 50 43 42 40 38 37 35 35 36 35 36 37 37 37 37 35 36 36 37 37 38 38 39 40 41 42 43 45 45 48
49 51 49 47 45 42 41 43 44 44 47 47 48 48 48 42 41 41 38 36 38 37 36 37 37 37 38 37 37 37 36 36 37 38 39 40 42 43 45 46 47 48 47 50
52 52 51 49 48 47 47 47 46 46 47 49 50 47 49 47 44 43 39 36 34 34 43 38 37 38 38 37 36 38 38 38 38 38 39 41 43 44 46 46 46 45 47 48
52 54 53 51 49 49 47 47 46 48 50 51 53 53 53 49 43 43 43 35 34 31 34 37 37 37 38 38 38 39 39 39 39 40 41 42 43 43 44 45 46 47 50 50
52 55 54 54 53 51 50 50 50 51 51 52 52 53 51 51 48 46 43 40 48 44 38 39 41 42 41 41 41 41 41 42 43 44 45 45 46 46 47 49 51 52 52 51
51 54 54 52 50 51 52 52 52 53 53 55 54 56 55 56 54 52 47 44 40 40 42 41 42 45 45 44 42 42 43 45 47 46 47 47 47 48 50 51 51 50 50 50
51 55 56 57 56 58 58 55 56 55 56 59 60 55 55 55 53 55 54 50 49 47 46 46 46 45 46 47 48 48 49 48 47 47 48 49 51 52 53 52 52 52 51 53
59 58 57 54 54 54 54 54 52 53 57 58 61 56 59 58 57 58 58 59 56 55 55 54 54 53 53 52 52 53 54 53 52 52 52 54 55 55 55 55 54 53 53 55
50 49 49 50 57 57 57 54 54 56 52 61 52 57 44 53 58 60 62 62 63 62 60 60 60 59 60 60 58 56 55 56 56 56 56 57 57 57 57 58 58 55 55 59
42 43 45 49 51 52 54 50 50 54 53 57 53 55 38 51 55 58 60 61 62 63 62 61 61 61 60 60 59 59 59 59 61 61 61 60 60 59 58 58 57 59 63 64
40 37 37 40 42 46 47 40 48 46 44 43 47 45 44 49 56 59 61 60 60 62 65 64 63 62 61 61 63 62 61 60 61 61 61 60 59 58 59 62 65 67 65 63
43 43 44 45 46 49 38 42 43 45 43 43 41 35 35 41 48 54 55 56 58 64 68 70 67 66 66 64 63 63 63 61 61 61 61 62 63 65 66 67 66 64 63 63
48 48 49 51 51 48 45 49 49 49 42 47 48 43 41 42 47 46 47 51 51 53 58 63 66 64 62 64 64 65 64 64 63 62 64 67 69 68 66 63 62 61 58 54
51 50 50 50 50 50 46 46 47 49 46 49 48 45 45 50 53 42 47 48 51 51 51 53 54 55 59 63 66 66 67 68 69 69 68 65 62 60 59 61 61 53 54 56
50 49 48 47 49 49 49 51 54 52 47 49 50 48 47 48 51 48 50 49 50 50 51 52 52 52 55 55 56 59 62 63 62 60 58 58 59 60 61 56 54 58 59 59
52 50 50 52 53 55 53 53 55 54 54 52 51 51 52 51 50 48 50 51 50 48 47 49 51 51 53 55 57 58 57 59 59 60 60 60 61 59 55 56 54 60 61 62
57 56 57 57 57 55 58 60 60 59 59 59 59 59 57 56 56 55 52 54 52 50 50 49 49 49 51 54 57 59 61 61 60 62 59 57 54 53 55 56 61 62 62 66
59 57 58 59 58 58 57 58 60 62 63 63 64 64 64 63 61 60 57 56 55 53 54 54 53 51 51 52 55 57 57 60 64 58 52 52 53 60 63 64 66 68 70 70
61 61 62 63 63 61 61 64 64 64 65 66 65 64 66 66 65 64 64 62 61 61 60 59 57 55 53 53 54 53 60 64 56 51 56 62 65 65 64 64 67 69 69 73
63 63 62 62 63 64 65 65 65 64 63 65 67 66 64 66 67 66 65 66 65 64 63 64 65 64 59 53 51 55 56 49 55 62 65 65 63 63 64 66 70 72 75 78
Wind_Direction
213 214 215 213 215 218 221 221 221 223 219 225 225 223 225 227 232 235 237 241 245 251 258 264 269 272 274 273 269 260 257 259 260 264 267 269 271 277 281 286 286 287 289 295
215 215 217 216 217 220 224 227 231 229 228 228 227 225 226 230 234 238 241 243 248 251 258 266 269 272 272 272 270 266 262 258 262 262 264 267 269 274 278 281 284 284 288 293
221 222 224 222 220 224 229 230 232 233 233 235 233 231 229 231 234 236 244 247 250 254 257 261 266 267 269 269 267 267 265 261 260 262 263 266 269 272 275 278 280 283 286 290
219 220 222 222 222 223 227 231 234 237 238 237 239 237 234 235 237 239 242 249 253 254 259 264 262 266 267 268 268 265 265 264 263 258 261 266 267 270 272 276 280 283 285 287
221 222 223 224 225 228 231 234 236 240 241 239 237 243 232 240 240 243 247 250 254 258 260 259 264 261 262 265 266 264 263 263 263 262 259 262 267 269 271 273 276 280 283 285
223 224 224 223 226 227 231 233 236 239 241 242 240 241 239 242 249 253 254 255 258 258 259 259 260 260 261 262 263 262 261 261 262 262 261 260 263 267 270 271 273 276 279 282
225 226 228 224 227 230 231 232 235 238 241 244 246 246 252 249 251 253 253 259 260 260 259 259 258 258 259 260 261 262 261 261 261 262 263 262 264 267 270 271 272 274 277 280
230 232 232 232 232 236 239 242 245 248 248 249 249 249 252 250 252 252 254 254 257 261 263 261 260 260 259 259 261 263 262 261 261 262 263 264 265 267 269 270 273 275 278 279
226 228 230 230 232 233 238 241 244 245 247 249 250 253 252 252 252 256 257 255 250 256 261 264 260 258 259 261 261 262 262 263 263 263 263 264 265 267 270 273 275 277 278 280
230 231 233 233 233 236 238 240 241 245 248 250 254 254 256 257 263 262 254 249 249 254 259 260 261 261 261 262 262 262 264 264 265 266 266 267 268 270 272 274 276 278 278 280
229 231 232 234 235 237 238 239 242 245 247 252 254 256 259 263 264 264 267 262 256 259 256 256 258 262 263 264 264 265 267 268 268 268 269 270 272 273 275 277 277 277 279 281
231 235 235 238 240 241 241 242 243 245 247 251 254 254 259 261 264 267 265 263 262 263 262 263 259 261 267 267 267 267 267 268 268 270 270 271 272 273 275 275 276 278 278 280
229 231 234 235 236 238 241 241 244 245 247 249 250 258 257 262 267 269 272 270 269 267 265 265 265 265 265 268 270 269 269 270 271 272 273 275 276 275 276 277 277 277 278 283
227 230 235 239 246 246 247 248 248 251 252 258 259 261 260 265 265 267 267 268 267 267 267 265 265 266 268 268 267 269 272 274 276 276 276 276 276 278 279 279 278 278 281 285
232 234 238 242 243 246 246 246 249 254 258 256 261 261 261 263 265 265 264 266 269 269 267 268 269 270 270 271 272 272 272 273 273 272 274 276 277 279 279 278 277 278 281 284
233 240 242 241 242 245 249 251 255 256 259 260 261 260 265 268 269 269 269 267 267 268 269 269 270 270 270 271 270 270 270 270 271 273 274 277 279 277 275 275 277 279 284 282
236 238 240 242 243 246 250 256 261 266 264 266 265 267 259 257 262 263 263 263 265 266 267 268 270 271 271 270 270 270 270 270 271 274 276 275 274 274 274 278 282 283 282 281
238 240 241 243 245 249 254 260 260 262 266 273 274 271 267 264 261 262 265 268 267 264 264 265 266 267 266 266 268 269 271 273 274 274 273 273 273 276 279 280 280 280 279 278
237 239 243 246 250 255 255 258 260 260 261 262 268 271 268 265 263 267 272 271 271 270 270 268 268 266 267 268 268 269 270 269 268 270 272 275 277 278 278 278 277 279 282 280
237 240 242 246 249 255 259 255 258 261 260 260 260 262 265 267 270 271 266 266 269 269 270 271 270 268 267 266 266 266 267 270 272 273 274 274 275 276 277 279 281 281 278 276
239 242 245 249 253 254 258 262 262 259 262 263 265 264 264 263 267 269 270 269 269 269 271 271 270 272 273 272 272 271 270 271 271 272 272 276 276 276 277 277 277 274 271 274
242 246 248 250 254 254 258 262 264 267 265 263 263 264 267 267 265 265 266 269 270 272 271 271 271 269 272 272 270 268 267 269 272 272 273 274 274 274 275 277 274 270 272 273
247 249 250 250 253 255 256 257 259 261 262 263 265 267 265 265 265 265 264 260 264 270 272 270 271 272 272 272 271 271 271 272 272 270 271 273 272 274 273 274 269 269 271 269
250 253 255 256 257 259 260 262 264 263 262 263 263 265 266 266 266 265 263 262 261 260 270 270 270 271 269 270 271 272 273 271 267 268 272 271 271 271 272 272 270 269 269 271
252 256 258 261 262 266 267 267 267 268 266 266 265 265 266 266 265 267 265 263 262 265 269 271 271 270 269 268 268 266 268 265 265 266 268 269 266 267 267 264 263 267 267 273
258 263 266 268 268 269 269 270 270 269 269 270 269 268 267 268 266 267 270 269 268 270 272 272 273 272 272 269 266 262 260 255 259 260 260 262 261 259 262 264 268 273 277 279